Location: Unspecified
(51.0950°N, 12.9690°E)
Time: 20:56:43
(UTC+00:00)

Cosmos 1825 - Pass Details

Date: 28 October 2021
Orbit: 501 x 504 km, 82.5° (Epoch: 01 December)

Event Time Altitude Azimuth Distance (km) Brightness Sun altitude
Rises 18:13:35 0° 343° (NNW) 2,612 6.1 -23.2°
Reaches altitude 10° 18:15:47 10° 336° (NNW) 1,722 5.2 -23.5°
Maximum altitude 18:19:20 40° 267° (W) 756 3.4 -24.0°
Enters shadow 18:22:44 11° 197° (SSW) 1,662 4.8 -24.6°
